Theta_e
321 326 322 321 323 322 324 326 322 321 324 324 325 330 331 329 324 324 324 320 321 325 324 321 321 323 324 325 324 321 320 321 322 324 325 325 326 325 326 325 324 323 321 318 318 317 316 316 316 316 315 315 315 315 315 315 316 317 317 319 319 319 320 320 322 325 326 327 327 327 328 329 331 332 333 334 334 336 337 335 333 334 337 339 339 340
329 330 321 322 322 319 320 321 321 323 325 325 326 328 329 328 324 321 321 320 322 326 324 320 323 325 324 325 324 321 321 323 323 325 326 325 325 325 325 325 324 322 320 318 317 316 315 315 314 314 314 314 314 313 314 314 314 314 315 316 317 317 318 318 318 321 324 326 327 327 327 328 330 331 332 331 331 333 334 335 335 335 336 337 337 337
332 327 321 319 318 318 319 320 324 327 328 328 327 326 326 325 323 322 323 323 323 328 326 322 324 326 325 325 325 326 326 326 325 323 325 324 323 325 324 325 324 322 321 320 318 315 313 314 313 313 313 312 312 312 312 312 312 312 313 313 314 315 316 316 317 318 320 325 326 327 328 328 328 330 330 330 331 331 332 334 335 334 335 335 335 336
326 321 319 317 318 322 322 322 326 327 327 325 322 322 324 323 323 324 326 323 321 324 325 324 324 325 327 325 323 326 328 328 325 321 322 324 323 323 323 323 322 322 322 321 319 315 313 312 312 311 312 311 311 311 311 311 311 311 311 312 312 312 313 314 315 317 318 322 325 327 327 327 328 327 327 328 330 331 331 331 331 331 334 335 334 334
323 316 317 318 320 322 322 324 326 327 325 323 323 325 323 322 323 324 323 323 323 322 322 326 325 324 327 326 322 325 327 326 324 320 322 325 322 322 322 320 321 321 321 320 320 317 312 312 312 311 311 311 311 310 311 311 311 311 311 311 311 311 312 312 313 315 317 319 323 325 326 326 328 325 324 327 330 329 327 326 327 329 332 334 334 333
318 313 316 322 323 323 324 322 319 322 324 325 328 326 321 319 321 322 322 324 328 324 320 322 324 326 329 328 327 330 327 322 321 318 319 321 319 319 320 319 320 320 318 319 319 316 312 311 311 311 310 310 311 311 311 311 311 311 311 311 311 311 311 311 312 313 315 317 318 322 325 326 327 326 325 328 329 327 325 326 330 332 331 332 333 333
316 315 317 322 324 325 326 320 315 321 327 324 320 319 320 319 320 324 323 323 326 323 318 319 325 329 327 324 326 331 327 321 320 319 316 316 317 317 318 319 320 319 319 319 318 314 311 311 311 310 311 310 310 311 311 311 311 311 312 311 311 311 311 311 312 312 313 315 316 318 321 323 325 326 327 328 328 326 326 329 332 332 331 332 332 332
316 318 320 322 324 326 324 318 315 320 325 319 313 317 321 319 319 325 324 324 327 323 320 322 326 327 325 324 325 327 325 321 323 322 318 315 316 317 317 317 317 317 319 320 319 315 311 311 311 310 310 310 310 311 311 311 311 311 311 311 311 311 311 311 312 312 312 313 314 315 317 319 322 324 326 328 329 328 328 329 330 330 330 331 332 333
316 318 320 323 325 322 318 316 315 316 318 316 314 319 322 318 320 326 328 329 326 322 323 325 323 324 329 328 325 326 324 321 323 322 318 316 316 317 316 315 315 316 317 318 318 315 311 310 310 310 310 310 310 311 311 311 311 311 311 311 311 311 311 312 312 312 312 313 313 314 315 316 318 320 322 325 327 327 328 329 328 327 328 329 332 333
314 317 320 325 324 318 316 316 316 317 318 316 314 319 321 319 321 326 330 329 326 326 327 325 320 321 329 329 324 326 324 320 322 320 316 315 316 316 315 315 316 316 316 317 314 311 311 310 310 309 309 309 310 311 311 311 311 311 311 311 311 311 312 312 312 312 312 312 313 313 314 315 316 317 318 321 323 324 326 328 328 328 328 329 331 332
318 320 320 321 318 315 316 315 315 317 316 317 320 324 324 323 327 329 328 329 332 332 327 323 321 320 326 326 323 325 322 319 323 321 315 315 316 316 314 314 315 316 316 317 314 310 310 310 309 309 309 309 309 311 311 311 311 311 311 311 311 311 312 312 312 312 312 312 313 313 313 313 314 315 316 318 319 321 322 325 327 327 327 328 329 330
322 324 319 318 316 316 318 314 313 315 315 320 329 328 322 322 327 331 329 329 333 330 324 324 323 321 323 324 322 321 318 318 324 322 316 315 316 314 313 313 314 315 316 317 317 313 309 309 309 309 309 309 310 311 311 311 311 311 311 311 311 311 312 312 312 312 313 313 313 313 313 313 314 314 315 316 317 319 320 322 324 325 324 325 326 327
321 321 317 317 317 316 320 320 318 322 321 323 330 329 326 324 326 332 329 325 327 323 320 324 324 323 323 322 321 320 318 320 322 319 316 315 315 313 311 312 313 314 316 316 318 317 310 307 308 308 309 309 310 311 311 311 311 311 311 311 311 311 311 311 312 312 313 313 313 313 313 313 313 314 314 315 315 317 318 319 321 322 322 323 324 324
322 323 320 319 319 317 322 323 319 323 322 322 327 327 328 329 330 332 326 319 321 321 320 323 323 323 324 323 321 319 319 321 318 314 316 316 315 313 310 311 312 313 315 315 317 318 310 306 307 308 308 309 310 311 311 311 311 311 311 311 311 311 311 311 311 311 311 312 313 313 313 313 313 314 314 314 315 315 316 316 318 320 320 321 322 322
321 325 322 317 317 318 321 320 317 321 320 318 322 323 323 328 330 329 326 322 321 323 323 322 321 323 325 325 323 321 319 319 316 314 316 315 313 312 309 310 312 312 313 314 316 315 308 306 308 308 308 309 309 309 309 310 310 310 311 310 310 310 310 310 310 310 310 311 313 313 313 313 313 314 314 314 315 315 315 315 316 317 319 320 321 321
319 322 322 317 315 318 319 317 318 323 320 314 317 322 320 322 326 322 319 320 320 323 325 323 322 323 324 322 321 321 316 313 313 312 311 312 312 312 310 311 311 312 312 314 316 314 308 307 308 307 308 308 308 308 308 309 310 310 310 310 310 310 309 310 310 310 310 310 312 312 312 313 313 313 314 314 314 314 314 315 315 316 317 317 318 319
320 319 321 319 316 318 318 316 315 316 319 320 318 319 314 314 323 322 314 313 316 322 323 319 322 323 321 318 315 315 314 309 309 309 309 310 311 312 312 311 311 311 312 313 313 311 307 307 308 308 308 308 308 308 308 309 310 309 308 308 309 310 309 309 310 310 310 310 311 311 311 312 312 312 313 313 313 314 314 314 315 315 315 316 316 317
322 321 321 320 318 317 316 317 317 315 317 321 318 317 313 311 319 322 319 316 316 322 323 319 322 323 321 319 314 312 312 309 309 310 309 310 310 312 313 311 311 312 311 312 311 308 306 306 308 307 308 308 308 308 308 308 309 309 308 308 309 309 309 309 310 310 310 310 310 310 311 311 311 311 312 312 312 313 313 313 314 314 315 315 316 316
319 322 322 321 318 318 320 320 320 318 315 315 314 314 314 314 317 320 320 319 318 321 322 321 322 323 324 323 314 310 311 311 310 310 310 310 311 313 312 311 312 312 311 312 313 310 306 306 307 307 307 308 307 308 308 308 308 308 308 308 309 309 309 309 309 309 310 309 309 310 310 310 311 311 311 311 311 312 312 312 313 313 314 314 315 315
317 320 320 319 315 315 322 323 322 323 318 317 318 316 317 318 315 314 313 315 320 323 321 321 323 324 327 326 316 310 312 312 311 311 311 312 313 314 315 313 312 313 313 313 315 312 307 306 308 307 307 307 307 307 308 308 308 307 307 308 309 309 309 309 309 309 309 309 309 309 310 310 310 310 310 310 311 311 311 312 312 312 312 313 314 314
317 318 319 323 321 317 321 320 321 324 318 317 321 318 316 313 309 313 313 311 317 322 322 322 323 325 327 326 319 312 312 313 312 313 313 314 315 316 315 313 313 314 314 314 315 312 306 306 308 307 307 307 307 307 308 308 308 308 307 307 309 309 309 309 309 309 308 308 309 309 309 309 309 309 309 310 310 310 311 311 311 312 312 312 313 313
318 320 321 324 324 324 323 319 319 322 321 323 322 315 312 309 312 320 317 311 313 316 319 321 323 327 325 323 320 314 312 313 312 312 314 315 316 315 314 312 312 313 314 315 315 308 304 306 307 306 307 307 307 307 307 307 307 308 308 308 308 309 308 308 308 308 308 308 308 308 309 309 309 309 309 309 310 310 311 311 311 311 312 312 312 313
321 326 326 322 322 322 319 315 315 317 320 322 318 314 312 309 316 325 320 314 312 310 313 315 319 325 323 319 318 314 313 314 312 312 314 316 315 314 313 312 311 312 314 314 311 304 304 307 306 306 307 306 307 307 307 307 307 307 308 308 308 308 308 307 307 307 308 308 308 308 308 308 308 309 309 309 309 310 310 311 311 312 312 312 312 312
322 324 323 324 327 326 320 318 317 317 318 318 315 314 312 308 315 323 320 316 314 315 318 316 317 324 323 318 316 314 315 316 313 313 315 315 315 313 312 311 311 312 313 313 309 303 303 306 305 306 306 306 306 307 307 307 307 307 308 307 307 307 307 307 307 307 308 308 308 308 308 308 308 308 309 309 309 310 311 311 312 312 312 313 313 313
318 318 323 326 327 326 324 325 324 323 321 319 317 314 312 312 314 314 314 315 314 315 318 317 319 325 322 317 315 314 315 315 313 315 314 314 314 312 311 311 311 312 312 313 312 307 304 304 304 305 306 305 306 306 307 307 307 307 307 307 307 307 307 307 307 308 308 307 308 308 308 308 308 308 309 309 310 310 311 312 313 313 314 314 314 314
317 319 328 330 326 324 325 328 328 326 321 317 317 315 313 315 314 310 312 317 315 311 312 318 323 322 317 314 313 313 315 314 313 315 314 313 313 312 311 310 311 312 312 313 313 311 306 303 303 304 305 305 306 306 306 306 307 307 307 307 307 306 307 307 307 308 308 307 307 307 308 308 308 309 309 310 311 311 312 313 314 314 315 315 315 315
321 319 325 330 330 327 328 329 324 321 321 319 318 318 315 313 313 313 315 317 317 314 316 321 319 314 314 314 312 313 316 315 315 314 314 314 314 312 310 310 311 313 313 313 313 311 309 306 303 303 305 306 306 306 306 306 306 307 306 306 306 306 307 307 307 307 307 307 308 308 308 308 309 309 310 310 311 312 313 314 315 315 315 315 315 316
324 321 321 324 327 327 326 327 321 317 321 322 319 319 318 313 310 312 314 314 313 314 319 321 313 311 317 319 315 315 316 316 317 316 316 316 315 312 310 310 311 312 312 312 312 311 312 310 304 303 305 306 305 306 306 306 306 307 306 306 306 306 307 307 307 307 307 307 308 308 308 309 309 310 310 311 312 313 313 314 315 315 316 316 316 316
328 321 318 318 324 328 326 324 322 320 320 321 320 321 321 315 310 311 314 312 311 314 319 317 311 313 321 323 320 318 317 317 317 315 314 315 313 311 310 309 310 311 311 312 312 312 314 310 304 303 305 305 305 305 305 305 306 306 306 306 306 306 307 307 307 307 307 307 308 308 308 309 310 310 310 311 312 313 313 314 315 316 317 317 317 317
323 320 320 319 322 327 326 321 320 321 321 321 320 319 318 316 312 310 312 309 308 311 313 309 310 315 317 317 319 318 315 315 315 313 312 313 312 312 311 310 311 312 312 312 313 313 312 306 302 303 305 304 305 305 304 305 306 306 306 306 306 306 306 307 307 307 307 308 308 308 308 309 310 310 310 311 312 313 313 314 314 315 317 317 316 317
315 318 323 322 322 327 326 321 321 321 321 321 320 314 311 311 310 309 310 308 307 310 309 306 310 316 314 313 314 312 310 311 312 314 314 313 313 313 311 311 312 312 312 313 313 313 312 304 301 303 304 304 305 305 304 305 306 306 306 305 306 306 306 306 307 307 307 307 308 308 308 309 310 310 310 311 312 313 313 313 312 313 315 316 316 316
316 318 322 322 323 327 323 320 323 321 317 318 321 318 314 312 313 313 312 309 310 315 314 309 314 322 321 315 313 312 312 313 314 315 315 313 313 313 312 312 312 312 313 313 312 314 314 307 302 303 304 304 305 304 304 306 306 305 306 305 306 306 306 306 307 307 307 307 308 308 308 308 309 310 310 311 312 312 312 311 311 311 313 314 314 315
322 325 327 322 322 327 323 320 322 321 320 323 325 324 320 317 314 313 311 309 309 314 318 317 319 325 320 313 313 315 315 316 316 315 314 312 312 313 312 311 312 312 313 314 314 314 312 306 303 303 304 304 304 304 305 306 306 305 305 305 306 306 306 306 306 306 307 307 307 307 307 307 308 309 309 310 311 311 310 309 310 309 310 311 313 314
323 326 327 321 320 326 324 320 319 320 325 327 322 318 319 320 318 316 318 318 312 310 316 316 316 319 316 315 319 319 317 317 316 313 311 310 310 312 311 311 311 311 311 313 314 309 304 303 304 304 305 304 304 304 305 305 305 305 305 305 306 306 306 306 306 306 306 306 306 307 306 307 307 308 309 310 310 309 309 308 308 308 308 309 311 312
324 324 323 318 319 324 324 322 321 323 328 325 317 313 315 316 316 316 319 321 314 310 313 313 313 317 318 317 319 318 315 315 314 311 310 309 309 311 313 311 311 312 313 314 312 305 301 304 305 304 304 304 304 305 305 305 305 305 305 305 305 306 306 305 305 305 305 305 305 306 306 306 307 308 309 308 308 308 309 308 306 306 306 307 308 309
326 324 322 318 318 321 321 321 323 325 325 320 314 312 312 312 313 313 317 323 320 314 312 313 312 313 315 317 317 313 311 310 310 311 310 309 309 310 312 314 314 313 311 310 308 305 304 305 305 304 304 304 304 305 305 305 305 305 305 305 305 305 305 305 305 305 305 305 305 305 305 306 307 308 307 306 307 307 307 306 304 303 304 304 306 307
323 324 322 318 318 320 321 322 324 323 322 322 319 316 315 317 318 317 319 327 329 319 311 313 313 310 312 316 314 310 310 309 310 311 311 310 310 308 307 309 310 308 305 304 305 305 305 305 304 304 304 303 304 305 305 305 305 305 305 304 304 305 305 304 304 304 304 305 304 304 305 305 307 307 305 305 305 305 304 303 302 302 302 303 304 305
319 321 323 321 318 319 320 321 323 323 325 330 329 321 317 318 322 322 320 325 331 323 311 311 315 314 314 315 311 310 311 311 313 315 311 310 312 310 306 302 302 303 304 304 305 305 304 304 304 304 303 303 304 305 305 306 305 305 305 304 304 305 304 304 304 304 304 304 304 304 305 305 307 305 303 303 302 301 301 301 301 301 301 302 303 302
318 320 325 324 321 319 319 321 323 323 325 328 329 323 317 316 321 326 325 325 331 326 312 309 316 319 315 313 311 311 312 314 318 319 313 310 310 309 308 304 302 303 305 305 305 305 304 304 304 303 303 303 304 305 305 306 306 305 304 304 304 304 304 304 304 304 304 304 303 304 304 305 306 305 302 301 301 300 300 300 300 300 300 301 301 301
320 322 323 323 322 320 321 322 322 322 322 321 322 322 317 315 319 324 324 326 333 328 312 310 320 321 313 310 309 311 314 317 322 321 314 308 306 304 305 305 303 303 305 305 305 305 304 304 303 303 303 304 304 304 305 305 305 304 304 304 304 304 303 304 304 303 303 303 303 303 304 304 306 305 302 301 300 300 300 300 299 299 299 300 300 300
321 321 319 320 324 321 319 320 320 323 324 321 320 322 318 315 318 324 325 327 334 330 314 313 321 319 310 308 309 312 314 315 318 317 309 305 307 306 303 304 304 305 305 305 305 305 304 304 303 303 303 304 304 304 304 304 304 303 304 304 304 303 303 304 304 303 303 303 303 303 303 303 304 305 304 302 301 300 299 299 299 299 299 299 299 299
321 321 318 318 322 320 319 321 321 322 324 320 318 317 314 314 322 329 328 325 328 328 318 313 317 314 309 310 311 312 313 311 311 313 309 308 311 308 302 302 304 304 305 304 304 304 304 304 303 303 303 303 303 303 304 303 303 303 304 305 303 303 303 304 304 303 303 303 303 303 303 303 303 303 303 302 301 300 299 299 299 299 299 299 299 298
321 323 323 322 321 318 317 320 322 324 321 317 316 314 313 320 330 333 327 319 320 325 322 316 313 310 309 312 310 309 312 312 311 311 310 310 311 306 302 302 303 303 304 304 304 304 304 304 303 303 303 303 303 304 303 303 303 303 304 304 303 302 303 304 304 304 303 303 303 303 302 303 302 302 302 302 302 302 300 299 299 298 298 298 298 298
319 321 325 324 322 321 320 322 327 330 322 315 318 321 319 323 329 329 325 319 318 321 323 320 317 310 309 314 313 309 311 315 314 311 309 310 310 305 301 301 302 303 304 304 304 304 304 304 303 303 303 303 303 303 303 303 303 303 304 304 303 302 303 303 303 303 303 303 303 303 303 302 302 302 302 302 302 302 302 301 299 298 298 298 298 297
318 320 320 318 318 322 325 325 325 325 319 314 318 323 319 318 322 325 325 323 321 320 319 320 321 315 309 311 312 310 311 315 314 310 309 311 311 306 302 301 302 303 304 304 304 305 304 304 304 303 303 303 303 303 303 303 303 303 304 303 302 302 302 302 302 302 302 302 302 302 302 302 302 302 302 302 302 302 302 301 300 299 298 298 297 297
320 318 315 315 318 321 321 320 316 318 322 319 315 315 315 316 319 321 323 324 326 323 319 319 324 323 314 309 311 312 313 314 315 312 310 311 311 305 300 301 302 302 303 304 304 304 305 304 304 304 303 303 303 303 303 303 302 303 303 303 302 301 301 301 301 301 301 301 302 302 302 301 301 301 301 301 301 302 301 302 301 300 299 298 298 297
320 316 314 317 319 318 321 324 320 319 324 322 315 314 316 317 318 319 321 324 327 326 323 320 322 322 314 308 311 316 315 314 315 314 310 311 311 305 299 300 302 302 303 304 304 304 305 304 304 304 304 303 303 303 303 303 303 303 303 303 301 301 301 301 301 301 301 301 301 301 301 301 301 300 300 301 301 301 301 301 301 301 300 299 299 298
317 312 316 320 319 317 322 327 323 319 321 320 317 316 316 316 318 319 317 319 322 323 320 315 313 316 315 310 312 317 318 315 315 315 313 311 309 303 299 300 302 302 303 304 304 304 305 304 304 304 304 303 303 303 303 303 303 302 303 303 302 301 301 301 301 301 301 301 301 301 301 301 300 300 300 300 300 300 300 300 300 300 300 299 299 298
313 312 318 320 317 317 320 321 320 320 323 325 323 320 316 315 318 320 317 315 319 321 319 313 308 309 311 312 312 315 318 317 312 311 314 314 308 302 300 301 302 303 304 304 304 304 305 304 304 304 304 304 303 303 303 303 303 303 303 303 302 301 301 301 301 301 301 301 301 301 300 300 300 300 300 300 300 300 300 300 300 299 299 298 298 297
314 316 319 317 316 318 321 321 320 318 319 322 322 320 319 316 315 318 319 317 319 323 323 319 311 305 304 305 306 312 321 321 311 306 310 309 304 302 302 303 302 304 304 304 304 305 304 304 304 303 304 303 303 303 303 303 303 303 303 303 303 303 302 302 301 301 301 301 301 301 300 300 300 300 300 300 299 299 300 300 300 299 298 298 297 297
316 318 319 318 319 320 320 321 320 316 317 319 316 315 318 316 314 317 319 319 321 322 321 320 318 313 309 305 301 306 317 317 308 305 308 305 301 303 304 304 303 304 305 305 305 304 304 304 304 303 303 303 303 303 303 303 303 303 302 303 303 303 303 303 302 301 301 300 300 301 301 300 300 300 300 299 299 299 299 299 300 299 298 298 297 297
Wind_Speed
4 5 2 2 4 4 5 4 4 3 5 6 4 3 3 2 1 2 2 3 3 6 4 3 7 6 5 4 2 2 5 4 4 4 3 3 3 3 3 2 3 3 2 3 7 11 14 17 19 19 19 20 20 21 22 23 24 24 24 24 25 27 29 30 29 27 23 18 16 15 11 3 14 18 17 18 18 18 19 19 20 22 20 19 18 17
5 5 0 4 6 4 1 3 5 5 5 5 4 3 1 2 2 2 1 3 3 5 1 1 6 5 4 4 3 4 6 3 5 5 4 3 3 3 3 3 2 2 2 4 8 12 15 18 19 19 20 20 21 21 22 22 22 22 22 23 23 23 25 27 29 27 23 20 16 13 12 7 12 16 12 13 14 15 17 16 15 17 17 16 15 14
5 2 3 4 2 4 6 4 6 7 6 5 3 3 1 2 2 3 3 4 5 4 3 2 6 3 2 2 4 4 4 1 4 4 4 2 2 1 2 2 1 2 3 5 6 10 15 17 17 18 19 19 20 20 21 21 21 21 21 22 22 22 23 23 25 26 25 21 17 12 9 8 9 11 9 10 12 13 14 13 11 13 16 15 14 13
3 2 5 2 4 7 7 6 7 6 4 3 2 2 2 3 1 1 3 4 4 3 4 5 5 2 4 3 3 2 1 1 5 5 4 4 2 1 1 1 1 3 4 4 4 7 13 15 15 16 17 18 19 20 20 21 21 21 21 21 21 21 22 21 21 23 23 22 19 13 8 7 5 8 9 6 9 10 11 10 6 9 14 13 13 12
3 2 2 5 6 7 6 6 7 5 4 2 2 3 2 3 2 3 2 1 4 5 4 6 4 2 3 1 2 2 1 2 3 3 3 4 3 3 3 3 2 2 3 3 3 5 9 12 12 14 16 17 19 19 19 19 20 20 20 20 21 21 21 21 21 20 20 22 22 18 13 11 7 5 5 7 5 3 4 5 5 7 9 10 9 9
2 2 1 6 6 6 7 5 3 4 2 4 2 4 4 4 3 2 2 4 4 4 2 3 2 3 3 0 3 3 3 0 1 2 4 3 5 5 2 2 3 3 2 2 4 5 7 9 12 14 15 16 16 16 17 17 18 18 18 19 20 21 22 21 21 19 19 20 21 22 18 14 12 5 1 4 5 3 3 1 7 6 3 5 6 6
1 4 4 6 6 7 7 3 1 4 4 2 3 3 2 1 3 4 4 3 2 2 3 2 3 3 3 1 3 4 2 3 3 3 4 4 5 4 1 2 3 3 2 3 4 5 6 9 11 12 12 13 14 15 15 15 16 16 17 18 19 20 21 20 20 19 18 18 18 20 18 15 14 9 3 2 2 0 2 3 4 4 1 3 4 5
0 5 7 6 6 6 5 3 0 4 5 1 4 1 4 2 3 5 6 4 2 3 2 5 4 2 1 3 4 3 2 5 5 4 4 5 5 3 2 3 2 1 2 4 4 4 6 8 9 9 10 12 13 13 13 13 14 15 16 17 17 18 19 18 19 19 18 18 17 17 17 16 15 13 8 5 2 1 3 5 4 4 3 2 3 5
1 3 2 3 5 4 2 1 3 3 2 3 3 3 5 2 3 4 5 3 2 3 1 6 3 2 3 4 4 2 3 5 5 4 4 5 4 4 3 2 0 1 3 4 4 3 5 6 6 8 9 11 12 12 11 11 12 14 15 15 16 17 17 17 17 17 16 16 16 15 16 16 15 14 12 9 7 5 2 4 5 7 6 4 4 5
1 2 5 6 5 1 2 4 3 4 1 3 2 4 4 5 4 4 5 3 3 3 2 5 3 1 3 4 4 3 3 3 4 4 3 4 4 3 2 1 2 3 4 3 2 3 4 5 6 8 10 12 13 11 10 10 12 14 14 14 16 16 16 16 16 16 15 15 15 15 15 15 14 14 14 12 11 9 7 3 3 6 6 5 5 5
3 2 2 4 2 2 4 2 2 3 1 0 4 4 5 6 5 4 3 3 4 2 4 4 1 2 1 3 2 0 1 1 2 2 1 4 4 2 1 2 3 4 4 3 3 4 5 6 8 10 12 14 14 10 9 11 13 14 14 14 15 15 15 15 15 15 15 14 14 13 14 14 13 13 13 13 12 10 8 5 1 3 3 2 2 3
6 5 2 1 1 2 3 1 1 3 3 4 4 4 3 3 4 4 4 4 4 1 4 4 1 4 1 3 3 2 4 3 2 1 2 4 3 1 1 2 3 3 2 2 3 4 6 8 11 13 14 14 12 8 9 12 13 13 13 14 14 14 15 15 14 14 14 14 14 13 12 13 13 12 11 12 11 9 8 5 3 2 2 0 2 2
4 2 4 4 2 3 5 1 2 5 6 5 5 5 3 2 3 3 3 2 0 2 2 1 1 1 1 3 3 3 4 3 0 1 3 4 2 2 3 3 3 2 2 2 3 4 6 8 11 12 13 13 10 7 9 12 12 13 13 14 14 15 15 15 14 14 14 13 14 14 12 12 12 11 10 10 10 9 8 6 5 5 4 2 3 3
2 4 6 5 4 2 6 4 2 4 4 4 3 3 3 2 3 1 3 1 2 2 2 2 1 1 1 2 2 3 4 2 2 3 3 4 3 4 4 3 2 2 2 3 4 4 5 7 9 10 11 12 11 9 11 13 13 13 12 13 14 15 15 15 15 15 15 13 12 13 12 11 11 10 10 9 9 8 7 7 6 6 4 3 3 3
1 3 4 3 2 3 3 3 3 2 2 1 3 5 3 3 4 1 3 2 2 2 3 4 1 0 1 1 2 3 3 2 3 2 2 1 3 4 3 3 3 2 2 3 4 3 5 7 8 9 10 11 11 11 13 13 11 11 12 12 14 14 15 15 15 15 16 14 12 10 11 11 10 10 9 8 8 7 7 6 6 5 4 2 1 2
2 2 5 4 2 2 3 1 3 4 2 0 2 4 2 2 4 1 2 3 1 0 2 3 1 1 1 1 2 2 2 3 4 2 0 2 3 3 2 3 2 2 3 3 3 3 5 7 7 8 9 10 11 12 14 13 10 10 12 11 12 12 13 14 15 15 15 14 12 10 10 10 10 9 8 8 7 7 6 6 5 4 3 2 0 1
2 2 5 4 3 3 2 1 2 3 0 1 2 2 2 3 6 3 1 1 3 2 1 2 1 2 2 2 2 2 3 2 3 1 1 3 3 2 3 3 2 3 3 3 3 4 5 6 7 7 8 10 12 13 14 14 11 12 14 13 13 12 12 13 14 14 14 13 12 11 10 10 9 9 8 8 8 7 6 6 5 4 2 2 1 1
3 1 5 2 2 1 1 2 4 3 2 3 2 2 2 2 4 3 1 2 4 1 3 2 1 2 1 2 1 3 5 4 3 2 3 3 2 3 4 4 3 4 4 3 4 4 6 6 6 7 8 10 12 13 15 16 15 15 16 16 16 15 15 15 14 14 14 13 13 12 11 11 10 9 8 8 8 7 6 6 5 5 4 3 3 3
4 1 6 2 2 4 4 4 4 5 3 4 2 2 2 2 1 1 2 1 1 1 3 2 2 2 3 3 2 5 6 6 5 3 2 4 4 5 5 4 4 4 3 3 4 4 6 7 7 8 10 11 12 13 14 16 16 16 17 17 17 16 16 15 15 14 14 14 14 12 12 12 11 10 9 9 9 8 8 7 7 6 6 6 5 5
2 3 3 4 2 3 5 4 1 4 5 4 3 3 2 3 2 0 1 1 2 1 2 2 2 2 3 4 5 7 7 7 6 5 5 6 6 5 4 4 4 4 3 4 4 4 6 7 8 9 11 13 13 13 14 15 15 15 17 17 16 15 15 15 15 15 15 15 15 13 12 12 12 12 11 10 10 9 9 9 8 8 8 8 8 8
2 3 1 5 4 3 2 0 3 3 1 3 3 3 3 1 1 1 1 1 2 2 2 1 2 4 4 3 6 8 7 7 7 7 6 6 5 5 5 4 4 4 4 5 4 4 7 8 9 10 12 13 14 13 14 14 15 16 16 17 17 16 16 16 16 16 15 15 15 14 13 13 13 12 12 11 10 10 9 9 9 9 8 9 10 10
1 2 2 2 3 1 3 4 3 5 4 3 2 1 2 1 2 3 1 3 1 2 2 3 1 5 4 2 4 7 7 7 7 6 6 6 6 6 5 5 5 4 4 5 5 5 7 9 10 12 13 13 14 14 14 15 17 18 18 18 18 17 16 17 17 16 15 15 15 14 14 13 13 12 12 11 10 10 10 9 9 9 9 9 10 11
3 3 3 0 1 3 5 5 1 3 5 5 2 2 3 2 4 5 1 3 0 2 1 3 1 5 5 2 3 4 6 6 5 5 5 5 6 6 6 5 5 5 6 5 5 6 8 10 11 12 14 14 14 14 15 17 19 20 20 19 19 18 18 18 18 16 15 14 14 14 14 14 13 12 12 11 11 10 9 9 9 8 8 9 9 10
1 3 3 1 3 3 5 4 2 2 4 4 1 2 3 1 3 5 4 2 2 0 0 1 2 5 4 3 3 1 2 2 2 4 5 5 5 6 6 5 5 6 6 5 5 7 9 10 11 12 14 14 14 15 17 19 20 20 19 19 19 19 19 18 17 16 15 15 14 14 14 14 13 12 12 11 11 10 9 9 9 9 9 9 9 9
0 1 3 3 3 5 6 5 5 4 2 1 0 1 2 3 5 3 2 3 1 2 3 3 2 6 5 4 4 4 3 1 4 4 5 5 6 6 5 5 5 6 6 5 5 6 7 9 10 12 14 14 14 16 18 19 20 19 19 19 19 19 19 17 16 16 16 15 15 15 15 14 13 13 12 11 11 11 11 10 10 10 9 10 10 10
2 2 3 5 2 1 1 2 3 2 1 0 1 1 1 4 5 3 1 4 1 2 4 4 4 5 5 4 4 3 2 3 6 5 4 5 6 6 5 5 6 5 5 6 5 5 6 7 10 12 13 14 15 17 19 19 19 19 19 19 19 19 18 18 17 17 16 16 15 15 15 15 14 13 12 12 13 13 13 12 12 12 12 12 12 13
3 2 2 5 5 5 5 6 5 3 1 1 2 2 2 3 4 5 3 1 3 2 2 5 5 2 5 5 4 4 3 4 6 6 5 6 6 6 5 5 5 5 5 5 5 5 5 6 9 12 13 14 16 18 19 19 19 18 19 19 18 18 18 18 18 17 17 16 16 16 16 16 15 14 14 14 14 14 14 13 13 14 14 13 14 16
4 0 2 5 5 6 6 6 3 2 3 4 4 3 3 3 5 6 3 3 4 3 4 6 4 2 6 6 6 7 6 5 7 7 7 6 5 5 4 4 5 5 5 5 5 5 5 5 8 11 14 15 17 19 19 19 18 18 19 18 18 18 18 18 18 17 17 16 15 16 16 15 15 15 15 15 15 15 15 15 15 15 16 15 15 17
5 1 2 3 3 5 4 5 3 3 2 3 5 5 5 6 7 7 6 5 7 5 5 5 6 5 7 6 6 8 7 7 8 7 5 4 4 4 4 4 6 6 6 6 6 6 5 5 7 11 14 16 18 18 19 20 19 18 19 19 18 18 17 17 17 17 17 15 15 15 15 15 16 17 16 15 15 15 16 17 17 16 17 17 17 17
4 2 2 2 3 5 4 4 4 4 2 1 3 4 5 7 9 7 3 3 4 4 4 3 4 7 8 7 8 7 6 6 5 3 2 3 4 5 5 6 7 7 7 6 6 6 5 6 8 11 14 16 18 18 19 19 18 18 19 19 19 19 18 17 17 17 17 15 14 14 13 14 15 17 17 16 16 16 16 18 18 16 15 15 17 18
1 2 0 3 2 5 4 2 1 1 3 4 3 2 2 5 4 2 0 2 2 4 3 3 2 7 7 7 7 4 1 2 3 3 4 5 5 6 6 7 7 7 7 6 6 6 6 6 9 12 14 16 18 18 18 18 18 18 19 20 20 19 19 18 18 18 17 15 13 13 12 12 14 16 17 16 16 17 17 19 19 16 13 13 15 16
1 1 1 4 2 4 3 4 4 3 2 3 6 3 5 6 4 3 3 5 5 4 3 3 1 6 6 4 3 2 1 3 5 5 5 5 5 6 7 8 7 7 7 7 6 6 6 6 8 12 14 16 18 17 16 16 16 18 19 20 20 19 19 19 18 18 17 15 14 13 12 12 12 14 15 16 16 17 18 19 20 17 15 14 15 16
3 3 1 2 1 4 4 3 2 3 5 5 7 5 8 5 3 3 3 5 7 7 7 4 5 6 4 2 3 3 3 4 6 6 5 6 6 6 7 8 7 7 7 6 6 6 6 7 10 13 15 16 17 15 13 13 15 18 19 18 19 18 19 19 18 18 17 15 14 13 13 13 13 14 15 15 16 17 19 20 20 18 16 15 16 16
3 4 3 2 1 4 6 3 3 4 3 5 5 6 8 6 6 6 5 7 8 6 3 4 4 4 3 3 6 7 6 6 6 7 6 6 6 6 7 7 7 7 7 6 6 6 8 11 13 15 15 15 15 12 10 11 14 17 17 17 18 18 17 18 17 17 16 15 14 14 13 14 14 15 15 15 16 17 19 20 19 17 16 15 16 17
4 4 2 1 1 2 3 4 4 3 5 6 4 2 5 5 7 8 6 6 9 9 7 7 6 6 6 6 6 6 6 5 4 5 6 6 6 7 7 7 7 7 6 6 5 7 11 13 13 13 13 13 13 10 8 11 13 15 16 17 17 17 17 17 17 17 16 15 15 14 14 14 15 15 15 16 16 17 19 19 18 16 15 14 15 17
6 4 2 2 2 1 2 3 0 5 7 4 3 1 2 2 4 3 6 6 8 11 9 9 9 8 6 6 6 5 5 5 3 4 6 6 6 6 6 7 7 7 7 7 8 10 12 13 12 11 11 11 10 7 7 10 12 14 16 16 16 17 16 16 18 18 17 16 16 15 14 13 14 14 14 15 16 17 19 18 16 14 13 13 14 14
7 4 2 2 2 1 1 1 2 4 6 5 3 2 3 3 5 5 2 6 7 8 9 9 9 7 6 4 4 3 2 1 3 5 6 6 6 7 7 8 7 8 10 11 11 12 12 12 11 10 10 10 8 6 5 8 11 14 16 17 16 16 15 16 17 18 18 17 16 16 14 13 13 13 13 14 16 17 17 16 15 14 12 12 12 13
4 3 4 3 2 2 3 1 3 3 4 5 6 5 4 5 6 6 3 4 7 6 8 9 7 6 5 4 4 4 4 4 2 6 7 7 6 6 7 9 9 10 13 13 12 12 12 12 11 9 10 11 9 6 5 7 10 13 16 16 15 15 15 15 17 18 17 17 16 15 15 13 12 13 14 16 16 17 16 15 15 14 12 11 11 11
5 2 3 3 1 2 4 1 2 2 4 7 7 7 5 5 6 6 5 4 7 5 7 8 7 6 7 7 7 6 5 2 4 7 6 7 8 7 6 8 9 11 13 13 13 13 12 11 9 8 8 8 8 7 6 7 9 13 15 15 13 14 14 14 16 17 16 16 15 15 14 13 12 13 16 18 17 16 17 16 16 15 13 12 11 11
5 3 2 2 1 2 3 2 3 3 5 6 6 5 4 4 5 8 4 6 7 4 6 8 7 7 8 8 7 7 5 5 6 6 6 6 8 8 9 9 10 12 15 15 14 13 11 9 7 6 5 5 6 6 6 7 9 11 13 12 11 13 13 12 14 15 15 15 16 15 15 14 12 12 15 18 18 17 18 18 18 17 16 14 13 12
2 2 1 2 2 3 3 2 3 4 5 6 5 4 4 3 6 5 3 6 5 4 6 8 7 7 9 9 7 5 6 7 5 3 3 4 7 8 10 12 13 15 16 16 14 13 12 9 7 5 3 3 4 4 6 7 8 10 11 10 10 12 11 10 11 13 14 15 16 16 15 14 13 12 13 15 17 19 20 20 20 19 19 18 16 15
1 1 1 2 2 2 3 2 2 4 4 3 2 2 3 3 1 3 5 4 4 6 7 7 6 7 9 9 8 7 6 5 3 1 2 6 8 7 9 11 12 14 15 15 14 12 12 10 8 6 3 2 3 4 5 7 8 9 9 8 9 10 9 8 9 11 13 15 16 16 16 15 13 12 12 12 14 17 20 21 21 21 20 20 20 18
3 2 1 2 3 2 2 2 1 3 4 5 7 3 2 3 4 5 3 1 3 5 6 6 6 6 8 8 9 8 5 3 3 3 5 6 6 7 9 12 13 15 16 15 14 13 12 11 10 6 4 3 2 2 4 6 8 8 8 7 8 9 8 7 8 9 11 13 14 15 15 14 14 13 12 12 12 14 17 20 21 22 22 21 21 20
2 3 2 2 2 3 2 2 3 4 5 7 7 5 6 6 5 5 4 3 4 4 5 5 5 6 8 8 8 8 4 3 4 5 6 6 6 6 8 11 14 16 16 15 15 14 13 12 11 7 5 4 2 1 2 4 6 7 7 6 7 8 8 8 8 9 10 12 13 13 14 13 13 14 13 13 13 13 14 17 19 21 22 22 22 21
4 3 2 2 2 3 5 6 5 3 3 6 6 5 4 3 3 5 6 4 4 4 4 5 5 6 8 8 6 6 5 5 5 6 6 7 7 7 9 12 15 16 16 16 16 15 14 14 12 9 8 6 3 1 1 2 5 6 6 5 6 7 8 8 9 10 12 12 13 13 13 13 13 14 13 13 13 13 14 15 17 19 20 22 22 21
5 2 1 1 4 4 3 4 3 2 3 6 8 6 2 1 2 4 5 4 4 5 5 4 5 7 8 7 6 5 6 6 6 7 7 6 6 8 10 12 14 15 15 15 16 15 15 15 14 13 12 9 4 3 2 1 3 5 5 4 4 6 7 8 10 11 12 13 13 13 14 14 15 15 14 13 12 13 13 14 15 16 18 20 21 21
2 2 2 2 3 3 4 3 3 4 4 6 7 6 5 5 5 5 5 5 5 5 6 5 5 6 7 8 8 7 7 7 7 6 6 5 6 8 10 11 13 15 16 16 16 15 15 15 15 15 13 8 5 5 4 1 2 4 4 2 2 4 5 7 9 11 12 13 13 13 14 15 16 16 15 15 14 13 14 14 14 14 16 17 19 19
1 1 2 3 2 2 5 6 6 5 6 6 6 6 7 7 6 6 6 5 3 4 5 4 4 6 6 7 7 7 6 7 7 7 6 6 6 7 10 13 15 16 17 16 15 14 14 15 16 14 11 7 6 6 4 2 1 3 3 2 1 1 3 4 6 8 9 10 12 12 13 14 15 15 16 16 15 14 13 14 14 14 14 15 16 17
1 1 2 2 2 4 6 7 6 5 6 6 5 7 8 7 7 7 6 4 3 4 4 3 3 5 7 7 7 7 7 7 7 7 7 6 6 8 11 14 15 16 17 17 15 14 14 15 14 11 9 8 7 7 6 4 2 2 2 2 3 2 2 4 5 6 8 8 9 10 11 12 13 14 14 15 15 14 12 12 13 14 14 14 14 14
2 4 2 1 3 5 5 5 3 2 4 6 7 8 8 7 6 6 6 5 5 6 6 5 3 2 5 7 8 8 7 7 8 8 7 6 8 11 15 15 15 15 17 16 15 15 15 15 12 9 8 9 8 8 7 6 4 3 2 2 3 4 4 5 6 7 8 8 8 7 8 10 11 11 12 13 14 14 12 10 11 13 14 14 13 13
4 5 4 3 4 6 7 7 4 3 4 7 8 9 7 5 6 7 8 8 7 7 7 7 6 4 4 7 10 10 8 7 10 10 7 7 12 15 16 15 15 16 16 16 16 16 17 15 12 9 10 10 9 8 8 7 6 5 3 2 3 4 5 5 6 7 8 9 8 7 6 7 8 9 10 11 12 14 13 11 10 10 12 12 13 13
Wind_Direction
72 65 59 215 229 245 237 189 146 144 141 132 111 112 144 145 249 272 286 297 99 88 19 73 116 102 97 85 51 111 123 144 196 211 186 148 127 124 121 122 102 88 47 28 55 53 56 64 66 66 61 55 51 45 40 37 35 31 28 25 22 20 20 20 21 18 15 6 353 359 349 245 156 155 164 165 173 172 168 178 190 198 202 206 209 203
57 82 121 246 216 209 227 168 124 94 84 89 105 115 111 172 213 289 274 310 19 96 53 78 100 68 56 64 51 105 131 180 209 189 187 184 158 148 156 159 106 54 17 36 49 49 56 62 62 60 56 50 45 41 37 34 32 27 24 23 20 18 19 21 22 17 15 10 358 360 352 1 113 136 153 149 160 172 167 163 172 186 194 196 199 196
39 66 285 284 180 97 53 56 89 87 81 78 100 123 149 235 242 299 310 346 15 97 167 164 105 71 348 34 53 83 120 205 277 220 179 180 171 178 195 190 90 63 49 39 35 44 54 57 59 57 52 49 44 39 35 31 28 25 21 18 14 14 17 20 21 17 16 12 8 14 9 14 79 113 126 137 144 153 166 164 160 175 182 183 183 183
66 303 293 334 75 77 56 32 55 67 61 79 101 116 222 259 158 251 302 354 17 74 147 142 108 38 329 19 74 45 113 143 292 266 168 119 96 259 270 325 54 104 72 49 30 39 52 53 51 48 46 45 41 37 33 28 26 24 20 15 10 9 13 17 18 18 14 12 15 23 26 26 64 104 84 94 138 141 154 158 172 188 177 177 178 176
126 265 319 52 54 73 77 35 48 67 12 340 165 143 206 260 193 200 245 31 24 25 87 106 76 341 340 43 173 285 301 182 244 246 118 88 83 74 36 2 2 68 70 68 57 40 46 48 45 43 40 39 37 35 31 28 25 23 20 16 12 9 11 14 15 17 14 11 17 20 20 25 42 99 69 50 90 110 128 141 266 241 175 170 176 176
100 294 31 72 51 63 82 47 48 105 42 325 232 180 208 234 220 203 72 65 43 4 355 77 90 283 314 297 224 297 346 67 213 131 116 89 81 80 57 346 359 25 47 85 75 56 51 47 44 42 37 34 33 30 29 26 22 21 20 17 12 10 10 13 13 14 17 16 19 22 21 21 28 56 103 53 64 23 24 32 291 277 193 182 184 184
50 354 53 89 76 65 71 55 90 123 95 3 277 206 193 178 169 161 129 99 107 224 296 51 146 249 308 220 245 306 358 50 49 81 108 88 76 84 78 356 2 7 47 79 63 54 55 47 42 37 31 27 24 23 23 21 19 18 17 15 10 7 6 10 13 13 17 22 23 26 27 23 22 30 54 79 103 136 282 260 293 324 296 228 219 223
58 27 41 61 68 72 67 40 183 130 105 311 283 107 93 108 175 169 144 127 160 188 340 18 102 144 265 229 264 307 45 53 41 45 72 81 81 96 79 14 354 355 103 94 68 50 51 47 39 26 20 21 18 17 17 15 15 14 11 10 6 1 1 4 10 12 16 22 25 27 30 30 25 23 27 29 55 131 255 267 299 339 328 230 250 255
175 76 95 101 73 73 93 258 226 145 104 268 265 89 97 131 167 133 114 110 85 120 317 336 32 105 250 268 306 358 79 52 29 30 64 90 96 94 71 21 25 99 83 87 76 55 44 38 28 13 12 16 13 12 13 12 10 7 6 7 3 357 357 359 4 9 14 19 24 28 30 33 31 28 30 33 42 61 5 300 291 302 305 291 278 272
95 178 179 132 85 84 200 238 199 132 315 253 144 84 70 66 67 75 93 107 59 76 229 297 9 105 264 300 339 22 79 52 18 15 57 98 96 91 94 135 130 81 55 49 47 45 33 21 10 8 9 9 7 6 9 9 5 3 3 5 3 357 356 1 4 5 8 13 20 26 30 33 33 29 30 35 41 52 52 25 261 263 278 282 284 284
327 315 152 104 81 178 176 202 135 117 282 135 84 46 37 35 37 47 58 88 62 13 256 273 339 140 262 298 300 289 165 292 315 325 38 91 92 93 152 126 90 63 43 6 1 20 16 12 11 11 6 0 358 0 7 7 2 1 3 5 4 359 358 3 8 8 7 9 15 22 28 32 35 32 31 35 37 43 52 55 113 199 212 241 280 278
351 13 360 307 304 90 104 133 56 35 38 77 67 55 66 355 6 28 1 40 71 300 265 266 206 137 151 276 269 255 255 266 279 270 114 114 113 80 27 44 38 26 6 343 355 359 1 10 10 6 1 357 359 6 7 3 360 359 2 4 3 360 2 4 8 12 10 9 15 19 26 32 36 37 35 37 39 38 41 41 39 99 126 108 312 283
12 9 312 310 326 60 78 74 335 3 28 58 51 60 86 356 10 19 328 5 113 243 256 280 277 118 180 247 265 264 259 271 17 118 117 95 62 360 351 359 3 337 310 328 346 347 355 3 1 359 359 359 2 2 356 358 0 1 1 4 4 360 1 4 7 10 9 9 13 18 26 30 33 40 41 41 44 41 38 31 19 29 51 29 331 311
345 317 336 1 348 33 85 86 355 341 7 40 73 89 90 82 65 337 279 300 282 259 281 299 309 338 278 263 261 221 224 234 83 84 79 58 1 306 307 305 281 286 301 329 344 348 352 351 353 357 359 1 360 352 350 353 355 360 4 6 4 358 356 0 4 5 5 5 7 11 19 25 28 34 40 44 45 44 41 38 32 29 35 27 350 323
113 306 330 4 323 360 70 120 148 135 56 45 155 126 107 137 136 220 237 210 253 260 301 310 356 81 282 277 230 196 186 137 106 90 71 64 280 276 284 254 233 272 315 340 348 341 343 349 354 357 357 359 357 352 352 351 352 2 6 4 360 354 353 356 359 360 359 359 1 4 10 19 25 26 32 40 41 41 39 38 44 49 48 39 351 291
109 240 270 282 281 49 46 211 133 98 65 304 140 87 60 177 140 125 195 176 199 260 333 325 297 270 293 287 237 167 110 97 126 137 212 255 281 282 237 217 222 295 312 332 345 330 337 351 355 355 353 351 352 353 352 352 357 3 359 354 351 350 350 351 353 354 352 351 353 360 2 6 13 16 20 27 30 33 34 30 36 51 63 71 155 240
88 277 287 327 359 59 69 226 92 78 163 333 50 60 239 171 120 107 189 30 54 75 308 309 276 307 351 339 312 139 124 114 138 146 278 276 301 275 230 244 272 280 285 300 306 300 317 336 343 343 344 346 350 350 349 351 353 353 352 348 343 342 345 346 346 348 350 347 345 351 357 357 360 3 4 8 12 13 17 18 17 20 28 19 344 252
125 284 297 9 74 29 65 75 37 40 122 91 43 226 202 93 84 101 115 7 35 63 278 307 270 268 270 297 313 146 160 171 181 230 285 280 272 222 233 264 269 258 267 286 296 299 300 306 315 328 340 346 348 345 346 348 346 345 346 344 342 340 339 341 344 346 349 349 346 347 351 351 351 351 349 349 349 348 347 348 349 346 339 330 320 306
107 86 298 294 174 292 347 56 12 342 40 91 123 195 124 87 350 22 76 40 32 283 289 311 289 250 206 222 212 175 181 184 204 244 253 236 228 220 239 263 257 251 260 278 294 293 285 293 309 328 339 340 339 341 345 348 347 345 343 340 341 342 339 340 344 348 348 348 347 347 347 348 346 342 337 332 330 330 326 326 328 325 320 311 304 300
91 112 280 286 257 313 3 54 51 317 347 32 55 12 26 118 149 49 76 133 141 191 268 307 308 269 224 210 188 189 198 188 199 223 218 221 229 233 244 246 230 221 233 260 271 269 279 300 320 330 333 331 333 339 345 346 344 344 344 341 340 343 344 343 346 349 349 347 346 345 345 345 344 340 334 327 323 321 316 314 315 315 312 303 296 292
54 91 219 298 332 17 22 155 180 183 360 20 36 11 3 45 50 83 96 77 108 141 198 226 295 267 252 214 180 191 203 195 194 202 210 227 244 251 246 232 223 223 237 254 254 261 283 304 322 328 329 330 336 343 347 344 336 333 338 340 340 344 346 344 345 346 346 345 344 344 345 345 343 340 332 325 320 315 310 306 305 307 306 301 294 291
115 99 135 310 359 51 247 262 216 183 165 137 126 125 146 94 64 91 22 326 93 126 168 161 243 268 260 242 208 198 193 197 199 194 206 233 249 256 249 228 224 229 236 246 252 264 283 302 316 322 326 332 340 346 345 339 333 333 336 338 341 343 343 342 341 342 343 344 343 343 345 343 340 336 330 325 320 314 310 306 305 306 303 297 292 289
154 101 92 42 236 220 264 293 282 166 138 121 111 122 135 102 96 118 184 274 130 63 104 137 223 271 262 272 263 219 192 194 191 182 206 243 249 248 247 237 235 240 242 248 258 269 283 301 313 319 326 333 340 344 339 333 333 337 338 340 341 341 340 340 341 342 344 345 344 345 345 343 341 338 332 329 327 323 320 315 312 312 308 303 296 288
103 81 79 333 303 301 311 325 345 49 92 100 50 78 109 66 102 139 172 177 132 31 103 95 289 269 275 323 332 300 171 177 196 192 204 238 257 248 239 237 238 242 250 259 269 280 292 306 316 322 326 331 338 339 334 332 334 338 339 341 343 343 342 342 343 346 348 348 347 346 345 345 344 341 337 336 335 334 332 327 322 319 315 311 305 297
44 82 95 63 359 340 344 347 338 340 24 129 52 60 94 88 95 118 133 89 75 216 151 124 249 257 280 332 353 8 35 278 247 229 201 217 247 249 234 233 236 242 258 271 280 293 303 311 317 321 322 327 336 335 330 332 335 338 339 340 344 347 347 347 347 347 348 349 348 347 348 349 347 344 343 342 343 344 341 338 333 327 322 318 314 308
113 132 115 107 120 235 275 275 265 273 301 315 159 166 121 104 118 149 113 70 24 224 149 157 227 262 293 322 334 337 348 251 249 251 234 226 236 239 226 224 234 243 257 269 282 294 301 309 312 314 320 329 334 330 328 332 337 340 341 343 348 351 350 349 348 346 346 349 350 350 351 353 352 351 350 349 351 351 349 346 342 336 331 325 318 311
96 118 133 137 163 190 199 224 224 161 135 247 235 214 184 138 123 118 102 127 196 176 189 217 209 255 284 277 278 270 251 239 242 244 245 241 242 237 223 221 237 250 259 266 280 290 298 306 305 309 320 329 330 327 328 334 339 343 344 346 352 356 353 349 346 343 344 349 354 355 355 357 358 357 355 355 355 354 353 351 344 336 329 320 314 311
97 52 185 155 193 212 200 222 233 145 187 217 215 215 194 163 127 123 158 208 156 116 290 253 187 184 259 246 235 243 246 243 239 235 235 238 239 230 214 223 245 258 268 275 280 284 295 297 295 307 319 324 325 325 330 337 342 346 347 348 354 358 355 350 346 342 342 349 356 357 357 1 3 2 360 358 357 357 356 351 344 337 332 322 313 308
110 237 213 166 248 252 221 236 222 183 223 204 188 201 185 166 169 179 206 202 152 157 251 233 171 200 248 247 227 224 219 220 228 230 230 230 222 201 193 214 236 250 261 271 277 279 282 279 286 305 314 317 320 323 330 339 344 347 349 352 357 359 356 352 347 343 343 348 354 356 360 5 6 4 1 359 360 0 357 351 347 345 342 336 328 318
127 246 227 144 313 298 278 264 207 187 244 234 210 226 192 178 185 187 211 213 181 208 233 188 193 239 250 243 235 228 214 220 240 244 206 205 201 186 189 211 228 243 252 259 269 276 273 272 289 304 309 312 317 323 332 340 345 348 350 353 358 357 356 353 348 345 345 346 348 354 2 7 7 4 2 3 4 3 359 355 351 350 347 341 337 333
132 272 221 94 1 305 301 335 83 151 226 234 281 325 134 154 168 167 173 182 211 266 243 163 244 272 262 238 241 268 262 212 239 231 208 211 201 185 196 220 230 241 254 261 265 271 274 281 298 304 305 309 315 324 336 343 348 352 353 356 359 358 357 354 349 347 345 343 346 353 2 8 8 7 7 10 12 8 2 357 353 350 347 341 339 338
127 237 31 72 36 279 304 12 4 9 16 283 288 270 164 154 165 200 208 185 181 185 154 120 242 263 262 236 231 280 234 192 224 227 216 221 210 192 204 221 231 239 248 256 260 267 276 282 295 298 300 308 316 327 340 349 353 356 356 359 2 1 0 357 352 350 347 345 347 354 3 9 10 12 13 16 17 12 4 359 355 353 351 348 346 344
136 140 141 104 154 266 303 1 356 22 21 318 278 213 181 187 202 214 241 226 198 154 135 166 222 236 248 192 171 204 212 218 233 223 207 215 215 211 218 223 230 238 240 246 252 259 268 273 285 294 299 309 319 329 343 355 359 359 360 4 7 6 5 2 358 354 351 351 352 355 3 10 14 15 15 19 21 14 5 360 358 356 353 353 354 353
133 126 152 173 189 267 292 334 16 12 342 268 245 181 174 187 187 191 225 226 202 181 183 227 237 240 236 189 182 197 206 216 225 216 208 207 202 210 228 232 234 239 242 248 250 255 267 276 286 295 302 315 326 334 350 3 2 0 3 7 9 9 9 8 5 359 355 356 356 357 3 12 18 20 19 23 24 15 6 1 359 358 356 360 3 360
140 127 141 165 157 244 303 12 22 308 248 240 264 230 193 182 171 194 246 240 200 209 242 257 251 236 219 209 205 208 221 240 249 229 220 211 195 195 213 231 235 235 240 247 248 256 266 274 283 294 308 325 334 337 354 7 3 359 3 5 6 7 8 10 10 5 0 0 0 0 3 10 19 25 28 29 25 17 9 3 1 360 360 5 8 3
145 147 137 134 156 239 2 55 80 259 260 274 323 310 184 132 138 188 286 278 214 201 212 234 241 225 208 229 245 238 240 262 288 252 229 219 204 194 201 219 223 219 224 228 230 243 258 269 278 291 309 325 336 338 353 8 5 359 1 2 2 5 7 9 10 8 5 4 3 3 5 11 22 31 34 30 26 20 12 5 2 2 2 6 8 8
140 144 150 174 197 156 130 207 256 307 319 319 301 222 190 168 163 165 243 276 239 194 189 217 237 218 196 223 246 220 191 42 352 291 249 225 212 205 211 224 223 218 223 226 230 240 254 265 274 287 302 315 333 339 342 4 7 2 1 1 1 4 8 9 10 9 7 6 5 6 10 18 29 35 35 32 30 27 19 11 8 6 4 7 8 11
120 146 170 188 211 108 106 305 326 359 320 275 256 254 231 186 170 146 115 297 271 220 192 203 217 202 173 160 173 162 106 73 318 274 250 224 213 208 220 239 242 231 225 224 230 241 250 260 273 290 301 311 331 340 328 344 356 357 360 1 1 5 10 11 11 10 9 9 10 11 14 26 39 41 37 38 37 32 27 23 18 13 12 14 15 17
59 54 121 125 120 109 114 150 230 224 252 249 251 272 263 190 153 101 61 317 275 233 189 189 198 189 164 156 160 144 112 127 247 260 248 219 207 198 209 235 242 231 223 221 227 238 248 258 276 296 308 320 345 1 350 340 344 351 356 360 3 8 11 12 12 13 13 15 17 17 20 32 46 44 39 39 38 33 30 30 28 27 28 28 25 24
57 31 68 118 175 162 133 163 224 233 247 244 241 253 237 179 104 71 39 277 261 226 179 178 189 185 166 159 156 145 152 192 224 254 250 207 189 195 205 216 221 216 216 220 226 236 247 259 275 294 321 350 6 14 6 354 351 354 357 2 8 11 13 14 15 17 18 21 24 24 26 35 44 43 38 37 37 35 33 33 34 35 39 39 35 32
70 45 74 147 169 162 167 214 268 262 249 248 242 216 187 130 70 76 209 237 230 196 186 185 184 175 161 157 160 178 203 205 205 256 261 173 167 194 209 212 214 213 214 220 227 235 243 251 264 280 306 345 356 4 10 10 6 0 359 7 12 12 13 17 21 23 25 26 28 28 30 35 41 43 38 34 35 36 36 35 36 37 40 40 39 36
132 65 75 134 144 155 178 203 288 286 253 197 144 161 159 125 118 210 222 225 184 179 193 198 186 172 166 169 182 203 221 221 213 227 178 169 173 189 204 208 214 220 222 224 229 234 237 243 255 268 281 310 341 10 21 23 18 6 1 9 13 11 13 19 24 26 27 28 30 31 33 36 38 40 37 31 31 34 35 36 36 36 37 37 36 34
181 186 227 199 174 148 99 92 40 286 247 151 117 104 154 178 205 211 203 213 197 179 181 197 197 180 175 184 203 216 236 284 259 209 181 187 190 189 197 204 212 221 225 225 228 229 230 238 251 263 278 298 326 19 34 36 28 13 2 5 10 11 16 22 24 25 24 25 27 30 33 35 34 34 33 29 28 30 31 33 35 35 35 34 32 30
206 179 205 240 184 132 127 188 207 222 215 177 151 166 206 204 193 172 152 175 219 192 172 196 209 192 185 192 206 215 225 270 246 195 178 199 213 203 205 210 215 222 226 225 226 226 227 235 248 263 283 299 314 8 38 44 34 16 4 3 6 11 21 27 26 25 25 24 24 27 31 32 32 31 29 26 26 26 27 28 30 31 33 33 31 28
246 210 188 254 235 176 184 219 229 218 217 214 206 211 227 223 179 161 150 158 205 203 179 188 202 197 194 193 191 195 204 214 209 191 183 197 209 209 210 214 218 223 226 227 228 228 229 234 242 257 276 292 302 284 326 38 35 19 9 5 8 17 30 38 36 34 32 29 28 28 29 29 32 32 31 31 30 29 27 25 25 26 27 29 30 28
240 203 124 270 274 266 253 245 239 228 241 242 237 232 234 243 199 176 164 174 203 198 182 187 195 190 187 180 168 184 207 200 191 198 201 200 208 216 217 219 223 225 226 229 231 230 230 234 241 254 270 284 283 256 254 15 35 22 10 6 19 34 46 51 49 43 36 32 30 30 28 27 29 34 37 38 37 36 33 28 25 24 23 24 26 27
266 134 145 238 278 294 290 276 250 229 234 244 245 244 244 237 216 191 193 209 205 189 192 203 190 167 171 177 175 185 199 187 181 197 206 202 213 224 222 223 227 227 226 228 230 229 230 234 242 254 269 276 262 247 241 221 32 19 10 1 24 47 56 56 53 47 38 32 29 29 27 25 26 31 38 40 40 39 37 33 29 26 23 20 19 21
347 90 237 236 219 226 251 266 271 260 253 250 239 237 246 241 220 207 216 222 194 171 185 188 157 143 162 183 182 175 178 186 190 194 199 206 219 226 225 225 226 228 228 229 229 229 231 236 244 255 265 259 245 245 238 219 346 4 4 341 327 35 48 44 46 43 35 29 27 25 25 25 25 29 36 39 40 38 35 34 32 31 28 22 17 17
164 254 257 242 270 283 278 285 306 316 305 291 259 238 237 231 216 212 217 215 180 158 157 154 155 166 176 181 173 161 170 195 202 193 194 207 217 224 228 228 228 229 229 229 227 225 229 235 244 253 255 245 243 247 239 227 254 322 349 329 298 306 352 3 12 20 17 15 17 18 20 22 25 29 32 34 37 39 37 33 32 32 33 30 24 19
199 250 251 276 287 278 265 262 272 305 299 292 283 266 246 221 205 201 197 193 191 181 170 162 159 171 182 183 174 162 171 202 208 197 197 209 215 222 227 227 226 230 231 229 225 224 228 235 242 246 246 244 247 249 243 237 248 269 305 323 303 303 319 333 349 5 11 9 6 5 10 15 19 25 30 29 30 33 36 37 35 34 34 32 29 25
200 217 199 202 238 242 248 249 227 187 244 264 274 277 262 210 191 199 199 197 198 191 175 164 159 167 195 199 190 180 180 197 197 190 199 221 223 225 228 225 224 228 230 227 223 223 228 233 236 239 242 245 249 251 249 246 250 260 275 305 313 314 311 313 335 0 16 19 10 357 354 1 6 12 20 25 26 26 27 31 37 40 39 34 30 28